[[{"header":{"parameterUnit":"m.s-1","parameterCategory":1,"la1":30.2991,"la2":30.254,"lo1":-89.0895,"lo2":-89.0444,"dy":0.0017,"dx":0.0017,"nx":28,"ny":28,"refTime":"2024-08-05T09:00:00:Z","depth":0,"parameterNumber":2,"parameterNumberName":"U-component_of_WINDS"},"data":[0,0,0,0,0,0,0,0,0,0,0,0,0,0,0,0,0,0,0,0,0,0,0,0,0,0,0,0,0,0,0,0,0,0,0,0,0,0,0,0,0,0,0,0,0,0,0,0,0,0,0,0,0,0,0,0,0,0,0.6887,0.6887,0,0.6896,0.6896,0.6896,0.6892,0.6891,0.6891,0.6891,0.6899,0.6899,0.69,0,0,0,0,0,0,0,0,0,0,0,0,0,0.6867,0.6867,0.6887,0.6887,0.6887,0.6896,0.6896,0.6896,0.6892,0.6891,0.6891,0.6891,0.6899,0.6899,0.69,0,0,0,0,0,0,0,0,0,0,0,0,0,0.6875,0.6867,0.6887,0.6886,0.6886,0.6896,0.6896,0.6896,0.6892,0.6891,0.6891,0.6891,0.6899,0.6899,0.69,0.6911,0,0,0.6902,0.6902,0,0,0,0,0,0,0,0,0.6875,0.6876,0.6886,0.6886,0.6886,0.6892,0.6892,0.6901,0.6892,0.689,0.6891,0.689,0.6897,0.6898,0.69,0.6911,0.6911,0.6902,0.6902,0.6902,0.6903,0,0,0,0,0,0,0,0.6874,0.6876,0.6891,0.6886,0.6886,0.6885,0.6886,0.6893,0.6895,0.689,0.6889,0.6891,0.6897,0.6899,0.69,0.6911,0.6902,0.6902,0.6903,0.6903,0.6932,0.6933,0,0,0,0,0,0,0.6874,0.6875,0.689,0.6891,0.688,0.6886,0.6887,0.6891,0.6895,0.6895,0.6891,0.689,0.6898,0.6899,0.69,0.6914,0.6902,0.6903,0.6903,0.6932,0.6933,0.6933,0,0,0,0,0,0,0.6873,0.6875,0.689,0.6883,0.6885,0.6887,0.6891,0.6891,0.6894,0.6896,0.6896,0.6893,0.6898,0.6899,0.6908,0.6914,0.6903,0.6904,0.6932,0.6932,0.6933,0.694,0,0,0,0,0,0,0.6873,0.6875,0.6879,0.6883,0.6885,0.6898,0.6891,0.6891,0.6895,0.6894,0.6898,0.6898,0.6898,0.6907,0.6909,0.6915,0.6904,0.6931,0.6932,0.6933,0.694,0.6941,0.6942,0,0,0,0,0,0.6872,0.6881,0.6879,0.6881,0.689,0.6898,0.6899,0.6899,0.6895,0.6899,0.6901,0.6898,0.6913,0.6908,0.691,0.6916,0.6931,0.6932,0.6933,0.6939,0.6941,0.6942,0,0,0,0,0,0,0.6877,0.6881,0.688,0.689,0.6894,0.6897,0.6902,0.6901,0.6906,0.6905,0.6904,0.6905,0.6914,0.6916,0.6911,0.6927,0.6921,0.6923,0.6926,0.6927,0.6929,0.6928,0.6905,0,0,0,0,0,0.6879,0.6885,0.6888,0.6897,0.6899,0.69,0.6904,0.6903,0.6907,0.6909,0.6911,0.6915,0.692,0.6924,0.6929,0.694,0.6941,0.6945,0.6946,0.6947,0.6949,0.6955,0.6957,0.6936,0.6936,0.6936,0,0,0.6883,0.6886,0.689,0.6898,0.6901,0.6907,0.6902,0.6908,0.6913,0.691,0.6918,0.692,0.6924,0.6934,0.6939,0.6936,0.6955,0.6949,0.695,0.695,0.6956,0.6958,0.696,0.6937,0.6936,0.6936,0,0,0.6894,0.6897,0.6905,0.6909,0.6913,0.6915,0.6916,0.6921,0.6922,0.6931,0.6929,0.6934,0.6944,0.6947,0.695,0.6964,0.6962,0.6966,0.6973,0.6979,0.6981,0.6982,0.6988,0.699,0.6967,0.6967,0.6967,0,0.6899,0.6909,0.6909,0.6916,0.692,0.6918,0.6926,0.6929,0.6935,0.6938,0.6935,0.6947,0.695,0.6961,0.6965,0.6967,0.6969,0.6965,0.6981,0.6982,0.6984,0.6989,0.6991,0.6967,0.6967,0.6967,0.6967,0,0.6915,0.6922,0.6927,0.6934,0.6938,0.6946,0.6947,0.6952,0.6951,0.6953,0.6962,0.6966,0.6972,0.6974,0.6974,0.6986,0.6984,0.6981,0.6975,0.6986,0.6991,0.6993,0.6968,0.6968,0.6968,0.6967,0,0,0.6928,0.6936,0.6938,0.6942,0.6947,0.6953,0.696,0.6967,0.6971,0.6976,0.6982,0.6991,0.6988,0.6992,0.6992,0.6997,0.7009,0.6993,0.6993,0.6996,0.7023,0.7025,0.7027,0.7007,0.7008,0.7008,0.7022,0,0.694,0.6954,0.6955,0.6968,0.6974,0.6973,0.698,0.6984,0.6986,0.6992,0.6994,0.7,0.6996,0.6998,0.7004,0.7006,0.7014,0.7005,0.7014,0.7014,0.7013,0.703,0.7032,0.7046,0.7024,0.7025,0.7025,0,0.6956,0.6962,0.6975,0.6981,0.6984,0.699,0.6997,0.7002,0.7007,0.7009,0.7013,0.7012,0.702,0.7015,0.7026,0.702,0.7024,0.7025,0.7026,0.7027,0.702,0.7031,0.705,0.7052,0.7028,0.7028,0.7027,0,0.6965,0.6976,0.6986,0.6989,0.6996,0.7,0.7003,0.7008,0.7012,0.7018,0.7021,0.7028,0.7031,0.7036,0.7037,0.7033,0.7049,0.7043,0.705,0.705,0.7054,0.7053,0.7073,0.7056,0.7056,0.7056,0.7056,0,0.6978,0.6987,0.699,0.6996,0.7006,0.7007,0.7016,0.7019,0.7024,0.703,0.7029,0.7036,0.7037,0.7043,0.7044,0.7054,0.7055,0.7056,0.7057,0.7057,0.7057,0.7059,0.7058,0.7056,0.7056,0.7056,0.7056,0,0.699,0.6993,0.7003,0.7009,0.7011,0.7018,0.7023,0.7029,0.7031,0.704,0.7042,0.7045,0.7053,0.7054,0.7063,0.7064,0.7076,0.7075,0.7074,0.7074,0.7081,0.7081,0.7103,0.7107,0.7087,0.7087,0.7087,0,0.6998,0.7005,0.7012,0.7017,0.702,0.7027,0.7032,0.7034,0.7039,0.7046,0.7051,0.7059,0.7065,0.7077,0.708,0.7087,0.7087,0.7094,0.7088,0.7088,0.7087,0.7087,0.7088,0.7095,0.7096,0.7096,0.7096,0,0.7013,0.7014,0.7021,0.7029,0.7035,0.7041,0.7046,0.705,0.7053,0.7058,0.7067,0.7072,0.7081,0.7089,0.7096,0.7099,0.7098,0.7098,0.71,0.71,0.71,0.7101,0.7078,0.7098,0.7097,0.7097,0.7097,0.7097,0.7023,0.7029,0.7036,0.7044,0.7049,0.7054,0.706,0.7064,0.7071,0.7079,0.708,0.7089,0.7095,0.7104,0.7108,0.7115,0.7113,0.7116,0.7117,0.7117,0.7118,0.7099,0.7116,0.7116,0.7116,0.7116,0.7116,0,0.7038,0.7043,0.705,0.7059,0.7065,0.7064,0.7071,0.7076,0.7084,0.709,0.7097,0.7106,0.7114,0.7118,0.7126,0.7131,0.7131,0.7133,0.7133,0.7134,0.712,0.7117,0.7133,0.7133,0.7133,0.7133,0.7133,0.7133,0.7047,0.7057,0.706,0.7073,0.7077,0.7086,0.709,0.7096,0.7101,0.7112,0.7119,0.7121,0.7127,0.7135,0.7142,0.7143,0.7147,0.7149,0.715,0.7137,0.7135,0.7133,0.7131,0.715,0.715,0.7164,0.7164,0.7164]},{"header":{"parameterUnit":"m.s-1","parameterCategory":1,"la1":30.2991,"la2":30.254,"lo1":-89.0895,"lo2":-89.0444,"dy":0.0017,"dx":0.0017,"nx":28,"ny":28,"refTime":"2024-08-05T09:00:00:Z","depth":0,"parameterNumber":3,"parameterNumberName":"V-component_of_WINDS"},"data":[0,0,0,0,0,0,0,0,0,0,0,0,0,0,0,0,0,0,0,0,0,0,0,0,0,0,0,0,0,0,0,0,0,0,0,0,0,0,0,0,0,0,0,0,0,0,0,0,0,0,0,0,0,0,0,0,0,0,-2.0739,-2.074,0,-2.0778,-2.0778,-2.0778,-2.0773,-2.0772,-2.0772,-2.0771,-2.0807,-2.0809,-2.081,0,0,0,0,0,0,0,0,0,0,0,0,0,-2.0659,-2.066,-2.0739,-2.074,-2.074,-2.0777,-2.0778,-2.0779,-2.0773,-2.0772,-2.0772,-2.0771,-2.0807,-2.0809,-2.0811,0,0,0,0,0,0,0,0,0,0,0,0,0,-2.0695,-2.0661,-2.0739,-2.0742,-2.0743,-2.0777,-2.0778,-2.0779,-2.0773,-2.0772,-2.0771,-2.0771,-2.0806,-2.0809,-2.0811,-2.0844,0,0,-2.0818,-2.0819,0,0,0,0,0,0,0,0,-2.0693,-2.0698,-2.0741,-2.0742,-2.0743,-2.077,-2.0763,-2.08,-2.0774,-2.0762,-2.0771,-2.077,-2.0795,-2.0799,-2.0808,-2.0846,-2.0847,-2.0818,-2.082,-2.0821,-2.0821,0,0,0,0,0,0,0,-2.069,-2.0696,-2.0754,-2.0742,-2.0743,-2.0741,-2.0745,-2.077,-2.0783,-2.0763,-2.0762,-2.0767,-2.0796,-2.0806,-2.0809,-2.0848,-2.0818,-2.082,-2.0822,-2.0823,-2.0915,-2.0916,0,0,0,0,0,0,-2.0688,-2.0694,-2.0753,-2.0755,-2.0715,-2.0743,-2.0747,-2.0762,-2.0783,-2.0785,-2.0768,-2.0767,-2.0802,-2.0806,-2.081,-2.085,-2.0821,-2.0823,-2.0824,-2.0914,-2.0916,-2.0917,0,0,0,0,0,0,-2.0686,-2.0693,-2.0751,-2.0725,-2.0732,-2.0745,-2.0761,-2.0763,-2.0773,-2.0787,-2.0789,-2.0776,-2.0801,-2.0807,-2.0836,-2.0851,-2.0824,-2.0826,-2.0913,-2.0915,-2.0916,-2.0931,0,0,0,0,0,0,-2.0684,-2.0692,-2.0705,-2.0725,-2.0734,-2.0778,-2.0762,-2.0765,-2.0777,-2.0776,-2.0795,-2.0797,-2.0801,-2.0832,-2.0838,-2.0854,-2.0828,-2.0912,-2.0914,-2.0916,-2.0929,-2.0933,-2.0936,0,0,0,0,0,-2.0681,-2.0707,-2.0706,-2.0713,-2.075,-2.0778,-2.0783,-2.0788,-2.0779,-2.0792,-2.0801,-2.0796,-2.0849,-2.0836,-2.0842,-2.0858,-2.0911,-2.0913,-2.0916,-2.0927,-2.0932,-2.0936,0,0,0,0,0,0,-2.0687,-2.071,-2.0709,-2.0743,-2.0759,-2.0778,-2.0794,-2.0793,-2.0811,-2.0809,-2.0814,-2.0818,-2.0848,-2.0856,-2.0841,-2.0892,-2.0878,-2.0882,-2.0885,-2.089,-2.0893,-2.089,-2.083,0,0,0,0,0,-2.0693,-2.0715,-2.0733,-2.0761,-2.077,-2.0781,-2.0793,-2.0796,-2.0812,-2.0818,-2.083,-2.0845,-2.0865,-2.0878,-2.0897,-2.0931,-2.0934,-2.0945,-2.0949,-2.0951,-2.0954,-2.0972,-2.0977,-2.0925,-2.0925,-2.0925,0,0,-2.0705,-2.072,-2.0733,-2.0763,-2.0776,-2.0797,-2.0786,-2.0809,-2.0825,-2.0822,-2.085,-2.0859,-2.0877,-2.0908,-2.0923,-2.0916,-2.097,-2.0955,-2.0957,-2.0958,-2.0975,-2.098,-2.0985,-2.0926,-2.0926,-2.0926,0,0,-2.0736,-2.075,-2.0775,-2.0789,-2.0809,-2.0817,-2.0823,-2.0842,-2.0848,-2.0877,-2.0875,-2.0894,-2.0928,-2.0941,-2.0952,-2.099,-2.0986,-2.0996,-2.1013,-2.1031,-2.1035,-2.1039,-2.1052,-2.1057,-2.0999,-2.0999,-2.0999,0,-2.0748,-2.0781,-2.0788,-2.0812,-2.0825,-2.0825,-2.085,-2.0862,-2.0887,-2.0896,-2.0889,-2.0932,-2.0944,-2.0978,-2.0988,-2.0997,-2.1004,-2.0993,-2.1034,-2.1038,-2.1042,-2.1054,-2.1059,-2.1,-2.1,-2.1,-2.1,0,-2.0794,-2.0817,-2.0835,-2.086,-2.0876,-2.09,-2.091,-2.0924,-2.0926,-2.0934,-2.0964,-2.0978,-2.1,-2.1009,-2.1011,-2.1044,-2.1039,-2.1033,-2.1019,-2.1047,-2.1059,-2.1064,-2.1001,-2.1001,-2.1001,-2.1001,0,0,-2.0829,-2.0859,-2.0866,-2.0877,-2.09,-2.0918,-2.0942,-2.0965,-2.0978,-2.0995,-2.1015,-2.1045,-2.104,-2.1052,-2.1055,-2.1071,-2.11,-2.1063,-2.1064,-2.1069,-2.1137,-2.1141,-2.1146,-2.1099,-2.11,-2.11,-2.1136,0,-2.0862,-2.0906,-2.0914,-2.0952,-2.0973,-2.0974,-2.0995,-2.1011,-2.102,-2.1038,-2.1048,-2.1068,-2.106,-2.1068,-2.1084,-2.1093,-2.1114,-2.1091,-2.1116,-2.1117,-2.111,-2.1153,-2.1156,-2.1189,-2.114,-2.1141,-2.1142,0,-2.0907,-2.0927,-2.0967,-2.0988,-2.0998,-2.1017,-2.1038,-2.1057,-2.1075,-2.108,-2.1095,-2.1096,-2.1121,-2.1108,-2.1141,-2.1126,-2.1137,-2.1143,-2.1144,-2.1146,-2.113,-2.1154,-2.1199,-2.1204,-2.1149,-2.1148,-2.1148,0,-2.0927,-2.0965,-2.0994,-2.1004,-2.1029,-2.1043,-2.1054,-2.1071,-2.1085,-2.1104,-2.1112,-2.1134,-2.1145,-2.1161,-2.1168,-2.1158,-2.1201,-2.1188,-2.1205,-2.1205,-2.1213,-2.1212,-2.126,-2.1222,-2.1222,-2.1222,-2.1222,0,-2.0963,-2.0988,-2.1004,-2.1022,-2.1049,-2.1058,-2.1085,-2.1095,-2.1111,-2.113,-2.1132,-2.115,-2.1159,-2.1178,-2.1184,-2.1211,-2.1216,-2.122,-2.1221,-2.1219,-2.1218,-2.1225,-2.1223,-2.1223,-2.1223,-2.1223,-2.1223,0,-2.099,-2.1002,-2.1034,-2.1056,-2.1062,-2.1081,-2.11,-2.1117,-2.1126,-2.115,-2.1157,-2.117,-2.1193,-2.1203,-2.123,-2.1234,-2.1264,-2.1264,-2.1258,-2.1258,-2.1275,-2.1272,-2.1327,-2.1334,-2.1293,-2.1293,-2.1294,0,-2.1011,-2.103,-2.1055,-2.1069,-2.1081,-2.1103,-2.1117,-2.1126,-2.1141,-2.1164,-2.1178,-2.1201,-2.122,-2.1256,-2.1268,-2.1289,-2.1289,-2.1307,-2.1292,-2.129,-2.1288,-2.1286,-2.1288,-2.1309,-2.1309,-2.1309,-2.131,0,-2.1048,-2.1053,-2.1074,-2.1098,-2.1115,-2.1134,-2.1152,-2.1163,-2.1175,-2.1191,-2.1215,-2.123,-2.1259,-2.1282,-2.1304,-2.1314,-2.1314,-2.1315,-2.132,-2.1317,-2.1313,-2.1315,-2.1265,-2.1313,-2.1313,-2.1312,-2.1312,-2.1312,-2.1072,-2.1089,-2.1109,-2.1133,-2.1148,-2.1165,-2.1183,-2.1195,-2.1215,-2.124,-2.1245,-2.127,-2.1288,-2.1318,-2.133,-2.1349,-2.1344,-2.1352,-2.1353,-2.1355,-2.1355,-2.1311,-2.1353,-2.1353,-2.1353,-2.1353,-2.1353,0,-2.1107,-2.1121,-2.1143,-2.1169,-2.1188,-2.1188,-2.1208,-2.1223,-2.1246,-2.1264,-2.1283,-2.131,-2.1333,-2.1347,-2.137,-2.1382,-2.1383,-2.1388,-2.1386,-2.1389,-2.1359,-2.1352,-2.1387,-2.1387,-2.1387,-2.1387,-2.1387,-2.1387,-2.1128,-2.1157,-2.1165,-2.1202,-2.1215,-2.1241,-2.1253,-2.1268,-2.1283,-2.1314,-2.1333,-2.1343,-2.1359,-2.1383,-2.1403,-2.1407,-2.1415,-2.142,-2.1423,-2.1394,-2.1391,-2.1387,-2.1381,-2.1422,-2.1422,-2.1451,-2.1451,-2.1452]}]]